Time,TemperatureF,DewpointF,PressureIn,WindDirection,WindDirectionDegrees,WindSpeedMPH,WindSpeedGustMPH,Humidity,HourlyPrecipIn,Conditions,Clouds,dailyrainin,SoftwareType,DateUTC
2013-03-12 00:09:00,38.8,33.0,29.86,SE,146,0.0,5.0,80,0.00,,,0.00,weatherlink.com 1.10,2013-03-12 04:09:00,
2013-03-12 00:24:00,38.7,33.0,29.87,SW,215,3.0,7.0,80,0.00,,,0.00,weatherlink.com 1.10,2013-03-12 04:24:00,
2013-03-12 00:39:00,38.7,33.0,29.87,East,86,1.0,5.0,80,0.00,,,0.00,weatherlink.com 1.10,2013-03-12 04:39:00,
2013-03-12 00:54:00,38.8,33.0,29.87,SW,222,3.0,6.0,80,0.00,,,0.00,weatherlink.com 1.10,2013-03-12 04:54:00,
2013-03-12 01:09:00,38.7,33.0,29.87,SSW,207,3.0,8.0,80,0.00,,,0.00,weatherlink.com 1.10,2013-03-12 05:09:00,
2013-03-12 01:24:00,38.5,33.0,29.88,SSW,208,2.0,6.0,80,0.00,,,0.00,weatherlink.com 1.10,2013-03-12 05:24:00,
2013-03-12 01:39:00,38.2,33.0,29.88,SSE,160,3.0,8.0,80,0.00,,,0.00,weatherlink.com 1.10,2013-03-12 05:39:00,
2013-03-12 01:54:00,38.0,32.0,29.89,SSW,195,1.0,8.0,80,0.00,,,0.00,weatherlink.com 1.10,2013-03-12 05:54:00,
2013-03-12 02:09:00,37.7,32.0,29.89,NNE,23,5.0,9.0,80,0.00,,,0.00,weatherlink.com 1.10,2013-03-12 06:09:00,
2013-03-12 02:24:00,37.5,32.0,29.89,WSW,240,3.0,4.0,80,0.00,,,0.00,weatherlink.com 1.10,2013-03-12 06:24:00,
2013-03-12 02:39:00,37.3,32.0,29.89,SSW,203,2.0,7.0,80,0.00,,,0.00,weatherlink.com 1.10,2013-03-12 06:39:00,
2013-03-12 02:54:00,37.2,32.0,29.90,SSW,201,4.0,6.0,81,0.00,,,0.00,weatherlink.com 1.10,2013-03-12 06:54:00,
2013-03-12 03:09:00,37.0,32.0,29.90,SSW,200,3.0,7.0,81,0.00,,,0.00,weatherlink.com 1.10,2013-03-12 07:09:00,
2013-03-12 03:24:00,36.9,32.0,29.90,WNW,298,1.0,5.0,82,0.00,,,0.00,weatherlink.com 1.10,2013-03-12 07:24:00,
2013-03-12 03:39:00,36.9,32.0,29.91,SSW,213,0.0,5.0,82,0.00,,,0.00,weatherlink.com 1.10,2013-03-12 07:39:00,
2013-03-12 03:54:00,36.8,32.0,29.91,SSW,205,5.0,7.0,81,0.00,,,0.00,weatherlink.com 1.10,2013-03-12 07:54:00,
2013-03-12 04:09:00,36.5,31.0,29.91,SW,217,1.0,9.0,80,0.00,,,0.00,weatherlink.com 1.10,2013-03-12 08:09:00,
2013-03-12 04:24:00,36.4,31.0,29.91,South,188,1.0,4.0,80,0.00,,,0.00,weatherlink.com 1.10,2013-03-12 08:24:00,
2013-03-12 04:39:00,36.3,30.0,29.91,NW,307,0.0,8.0,79,0.00,,,0.00,weatherlink.com 1.10,2013-03-12 08:39:00,
2013-03-12 04:54:00,36.2,31.0,29.90,WSW,238,3.0,3.0,80,0.00,,,0.00,weatherlink.com 1.10,2013-03-12 08:54:00,
2013-03-12 05:09:00,36.2,30.0,29.91,SSW,205,2.0,5.0,78,0.00,,,0.00,weatherlink.com 1.10,2013-03-12 09:09:00,
2013-03-12 05:24:00,36.1,29.0,29.91,SW,232,0.0,5.0,75,0.00,,,0.00,weatherlink.com 1.10,2013-03-12 09:24:00,
2013-03-12 05:39:00,36.0,29.0,29.92,South,174,0.0,7.0,77,0.00,,,0.00,weatherlink.com 1.10,2013-03-12 09:39:00,
2013-03-12 05:54:00,35.9,30.0,29.93,SW,220,2.0,7.0,78,0.00,,,0.00,weatherlink.com 1.10,2013-03-12 09:54:00,
2013-03-12 06:09:00,35.8,30.0,29.93,WSW,242,1.0,4.0,78,0.00,,,0.00,weatherlink.com 1.10,2013-03-12 10:09:00,
2013-03-12 06:25:00,35.8,30.0,29.93,SSW,194,2.0,6.0,78,0.00,,,0.00,weatherlink.com 1.10,2013-03-12 10:25:00,
2013-03-12 06:40:00,35.7,29.0,29.94,ENE,74,4.0,5.0,78,0.00,,,0.00,weatherlink.com 1.10,2013-03-12 10:40:00,
2013-03-12 06:55:00,35.8,29.0,29.94,SSW,192,3.0,6.0,77,0.00,,,0.00,weatherlink.com 1.10,2013-03-12 10:55:00,
2013-03-12 07:10:00,35.8,29.0,29.95,South,186,3.0,4.0,77,0.00,,,0.00,weatherlink.com 1.10,2013-03-12 11:10:00,
2013-03-12 07:25:00,35.6,29.0,29.95,SSW,198,2.0,7.0,78,0.00,,,0.00,weatherlink.com 1.10,2013-03-12 11:25:00,
2013-03-12 07:40:00,35.6,29.0,29.95,SSW,198,0.0,7.0,77,0.00,,,0.00,weatherlink.com 1.10,2013-03-12 11:40:00,
2013-03-12 07:55:00,35.6,29.0,29.96,SSW,198,3.0,5.0,77,0.00,,,0.00,weatherlink.com 1.10,2013-03-12 11:55:00,
2013-03-12 08:10:00,35.6,29.0,29.97,SSW,192,2.0,5.0,77,0.00,,,0.00,weatherlink.com 1.10,2013-03-12 12:10:00,
2013-03-12 08:25:00,35.5,29.0,29.97,SSW,211,2.0,4.0,77,0.00,,,0.00,weatherlink.com 1.10,2013-03-12 12:25:00,
2013-03-12 08:40:00,35.5,29.0,29.97,SSW,200,3.0,7.0,78,0.00,,,0.00,weatherlink.com 1.10,2013-03-12 12:40:00,
2013-03-12 08:55:00,35.4,29.0,29.98,SW,229,6.0,6.0,78,0.00,,,0.00,weatherlink.com 1.10,2013-03-12 12:55:00,
2013-03-12 09:10:00,35.4,29.0,29.98,SW,217,0.0,5.0,77,0.00,,,0.00,weatherlink.com 1.10,2013-03-12 13:10:00,
2013-03-12 09:25:00,35.5,29.0,29.99,SW,217,3.0,6.0,77,0.00,,,0.00,weatherlink.com 1.10,2013-03-12 13:25:00,
2013-03-12 09:40:00,35.7,29.0,30.00,SW,231,2.0,5.0,77,0.00,,,0.00,weatherlink.com 1.10,2013-03-12 13:40:00,
2013-03-12 09:55:00,35.8,29.0,29.99,SW,225,2.0,7.0,76,0.00,,,0.00,weatherlink.com 1.10,2013-03-12 13:55:00,
2013-03-12 10:10:00,36.0,29.0,29.99,SSW,198,3.0,7.0,77,0.00,,,0.00,weatherlink.com 1.10,2013-03-12 14:10:00,
2013-03-12 10:25:00,36.2,29.0,30.00,South,180,2.0,7.0,75,0.00,,,0.00,weatherlink.com 1.10,2013-03-12 14:25:00,
2013-03-12 10:40:00,36.5,29.0,30.00,SSW,211,3.0,7.0,75,0.00,,,0.00,weatherlink.com 1.10,2013-03-12 14:40:00,
2013-03-12 10:55:00,36.6,29.0,30.01,South,190,5.0,7.0,74,0.00,,,0.00,weatherlink.com 1.10,2013-03-12 14:55:00,
2013-03-12 11:10:00,36.9,29.0,30.00,SW,217,0.0,4.0,73,0.00,,,0.00,weatherlink.com 1.10,2013-03-12 15:10:00,
2013-03-12 11:25:00,37.0,28.0,30.01,SW,221,2.0,7.0,71,0.00,,,0.00,weatherlink.com 1.10,2013-03-12 15:25:00,
2013-03-12 11:40:00,36.9,28.0,30.00,SW,224,1.0,7.0,71,0.00,,,0.00,weatherlink.com 1.10,2013-03-12 15:40:00,
2013-03-12 12:10:00,37.1,29.0,30.02,WNW,292,1.0,6.0,72,0.00,,,0.00,weatherlink.com 1.10,2013-03-12 16:10:00,
2013-03-12 12:25:00,36.9,29.0,30.02,South,189,1.0,7.0,73,0.00,,,0.00,weatherlink.com 1.10,2013-03-12 16:25:00,
2013-03-12 12:40:00,37.3,29.0,30.02,SSE,163,2.0,6.0,72,0.00,,,0.00,weatherlink.com 1.10,2013-03-12 16:40:00,
2013-03-12 12:55:00,37.5,29.0,30.03,SW,218,2.0,7.0,72,0.00,,,0.00,weatherlink.com 1.10,2013-03-12 16:55:00,
2013-03-12 13:10:00,37.6,30.0,30.03,SW,215,0.0,5.0,73,0.00,,,0.00,weatherlink.com 1.10,2013-03-12 17:10:00,
2013-03-12 13:25:00,37.5,29.0,30.02,SW,217,4.0,7.0,72,0.00,,,0.00,weatherlink.com 1.10,2013-03-12 17:25:00,
2013-03-12 13:40:00,37.9,30.0,30.02,WSW,249,1.0,8.0,72,0.00,,,0.00,weatherlink.com 1.10,2013-03-12 17:40:00,
2013-03-12 13:55:00,38.7,30.0,30.02,SSW,196,1.0,5.0,70,0.00,,,0.00,weatherlink.com 1.10,2013-03-12 17:55:00,
2013-03-12 14:10:00,39.3,29.0,30.02,SW,233,6.0,6.0,68,0.00,,,0.00,weatherlink.com 1.10,2013-03-12 18:10:00,
2013-03-12 14:25:00,39.9,29.0,30.01,SW,236,2.0,5.0,66,0.00,,,0.00,weatherlink.com 1.10,2013-03-12 18:25:00,
2013-03-12 14:40:00,41.0,30.0,30.00,SW,217,2.0,6.0,65,0.00,,,0.00,weatherlink.com 1.10,2013-03-12 18:40:00,
2013-03-12 14:55:00,41.8,31.0,29.99,NE,37,0.0,7.0,65,0.00,,,0.00,weatherlink.com 1.10,2013-03-12 18:55:00,
2013-03-12 15:10:00,42.6,31.0,30.00,SSW,212,4.0,5.0,63,0.00,,,0.00,weatherlink.com 1.10,2013-03-12 19:10:00,
2013-03-12 15:25:00,42.5,31.0,29.99,SW,229,3.0,5.0,63,0.00,,,0.00,weatherlink.com 1.10,2013-03-12 19:25:00,
2013-03-12 15:40:00,43.0,29.0,29.98,SSW,192,1.0,8.0,59,0.00,,,0.00,weatherlink.com 1.10,2013-03-12 19:40:00,
2013-03-12 15:55:00,44.3,31.0,29.98,SSW,206,3.0,7.0,59,0.00,,,0.00,weatherlink.com 1.10,2013-03-12 19:55:00,
2013-03-12 16:10:00,43.6,31.0,29.99,South,190,0.0,7.0,61,0.00,,,0.00,weatherlink.com 1.10,2013-03-12 20:10:00,
2013-03-12 16:25:00,44.1,30.0,29.99,SSW,198,2.0,7.0,59,0.00,,,0.00,weatherlink.com 1.10,2013-03-12 20:25:00,
2013-03-12 16:55:00,44.0,30.0,29.99,SSW,203,4.0,7.0,58,0.00,,,0.00,weatherlink.com 1.10,2013-03-12 20:55:00,
2013-03-12 17:10:00,45.3,31.0,29.98,SW,215,1.0,7.0,57,0.00,,,0.00,weatherlink.com 1.10,2013-03-12 21:10:00,
2013-03-12 17:25:00,45.4,30.0,29.98,SSW,210,4.0,8.0,56,0.00,,,0.00,weatherlink.com 1.10,2013-03-12 21:25:00,
2013-03-12 17:40:00,45.6,30.0,29.98,SSW,204,5.0,8.0,54,0.00,,,0.00,weatherlink.com 1.10,2013-03-12 21:40:00,
2013-03-12 17:55:00,45.2,30.0,29.98,SW,221,0.0,6.0,56,0.00,,,0.00,weatherlink.com 1.10,2013-03-12 21:55:00,
2013-03-12 18:10:00,45.1,29.0,29.98,West,260,2.0,8.0,54,0.00,,,0.00,weatherlink.com 1.10,2013-03-12 22:10:00,
2013-03-12 18:25:00,45.8,29.0,29.98,SW,227,3.0,8.0,53,0.00,,,0.00,weatherlink.com 1.10,2013-03-12 22:25:00,
2013-03-12 18:40:00,45.2,29.0,29.98,SW,226,4.0,6.0,53,0.00,,,0.00,weatherlink.com 1.10,2013-03-12 22:40:00,
2013-03-12 18:55:00,44.9,29.0,29.98,SW,224,2.0,5.0,54,0.00,,,0.00,weatherlink.com 1.10,2013-03-12 22:55:00,
2013-03-12 19:11:00,44.8,28.0,29.98,SSW,211,3.0,6.0,53,0.00,,,0.00,weatherlink.com 1.10,2013-03-12 23:11:00,
2013-03-12 19:26:00,44.6,28.0,29.98,SW,223,0.0,9.0,53,0.00,,,0.00,weatherlink.com 1.10,2013-03-12 23:26:00,
2013-03-12 19:41:00,44.3,28.0,29.99,SSW,196,0.0,3.0,54,0.00,,,0.00,weatherlink.com 1.10,2013-03-12 23:41:00,
2013-03-12 20:11:00,44.1,29.0,30.00,WSW,248,0.0,4.0,55,0.00,,,0.00,weatherlink.com 1.10,2013-03-13 00:11:00,
2013-03-12 20:26:00,43.9,28.0,30.00,SSW,197,0.0,3.0,55,0.00,,,0.00,weatherlink.com 1.10,2013-03-13 00:26:00,
2013-03-12 20:41:00,43.9,28.0,30.00,SW,221,1.0,4.0,54,0.00,,,0.00,weatherlink.com 1.10,2013-03-13 00:41:00,
2013-03-12 21:41:00,41.8,31.0,30.03,WNW,298,0.0,2.0,65,0.00,,,0.00,weatherlink.com 1.10,2013-03-13 01:41:00,
2013-03-12 21:56:00,41.1,30.0,30.02,WNW,299,0.0,2.0,64,0.00,,,0.00,weatherlink.com 1.10,2013-03-13 01:56:00,
2013-03-12 22:26:00,39.3,30.0,30.02,WNW,299,0.0,0.0,69,0.00,,,0.00,weatherlink.com 1.10,2013-03-13 02:26:00,
2013-03-12 22:41:00,38.2,30.0,30.03,WNW,299,0.0,0.0,71,0.00,,,0.00,weatherlink.com 1.10,2013-03-13 02:41:00,
2013-03-12 23:11:00,38.5,29.0,30.04,WSW,244,1.0,3.0,68,0.00,,,0.00,weatherlink.com 1.10,2013-03-13 03:11:00,
2013-03-12 23:26:00,39.3,31.0,30.06,SSW,192,4.0,10.0,72,0.00,,,0.00,weatherlink.com 1.10,2013-03-13 03:26:00,
2013-03-12 23:41:00,37.5,32.0,30.07,NNW,333,0.0,6.0,81,0.00,,,0.00,weatherlink.com 1.10,2013-03-13 03:41:00,
2013-03-12 23:56:00,36.2,33.0,30.07,SSW,193,3.0,4.0,87,0.00,,,0.00,weatherlink.com 1.10,2013-03-13 03:56:00,